Weather History for The Dalles, OR

Change the Weather History Date:

Tuesday, November 5, 2013

  Actual Average Record
Temperature  
Mean Temperature 48 °F -  
Max Temperature 54 °F 53 °F 72 °F (2012)
Min Temperature 43 °F 38 °F 23 °F (1959)
Degree Days  
Heating Degree Days 16    
Moisture  
Dew Point 43 °F    
Average Humidity 83    
Maximum Humidity 93    
Minimum Humidity 69    
Precipitation  
Precipitation 0.02 in - - ()
Sea Level Pressure  
Sea Level Pressure 30.15 in    
Wind  
Wind Speed 1 mph (West)    
Max Wind Speed 10 mph    
Max Gust Speed -    
Visibility 10 miles    
Events Rain    
Averages and records for this station are not official NWS values.
T = Trace of Precipitation, MM = Missing Value Source: NWS Daily Summary

Daily Weather History Graph

Daily Weather History Graph

Search for Another Location

Airport:

Trip Planner

Search our weather history database for the weather conditions in past years. The results will help you decide how hot, cold, wet, or windy it might be!

Date:

Astronomy

Nov. 05, 2013 Rise Set
Actual Time 6:50 AM PST 4:45 PM PST
Civil Twilight 6:19 AM PST 5:16 PM PST
Nautical Twilight 5:43 AM PST 5:52 PM PST
Astronomical Twilight 5:09 AM PST 6:26 PM PST
Moon 9:15 AM PST (11/5) 6:47 PM PST (11/5)
Length of Visible Light 10h 57m
Length of Day
9h 54m
Waxing Crescent, 7% of the Moon is Illuminated
Nov 5
Waxing Crescent
Nov 9
First Quarter
Nov 17
Full
Nov 25
Last Quarter
Dec 2
New

Hourly Weather History & Observations

Time (PST) Temp. Windchill Dew Point Humidity Pressure Visibility Wind Dir Wind Speed Gust Speed Precip Events Conditions
12:53 AM 43.0 °F - 39.9 °F 89% 30.16 in 10.0 mi Calm Calm - N/A   Overcast
1:53 AM 43.0 °F - 39.9 °F 89% 30.16 in 10.0 mi Calm Calm - N/A   Overcast
2:53 AM 43.0 °F - 41.0 °F 93% 30.15 in 9.0 mi Calm Calm - 0.00 in Rain Light Rain
3:53 AM 43.0 °F - 41.0 °F 93% 30.14 in 9.0 mi Calm Calm - 0.01 in Rain Light Rain
4:53 AM 43.0 °F - 41.0 °F 93% 30.15 in 10.0 mi Calm Calm - 0.01 in Rain Light Rain
5:53 AM 43.0 °F 41.3 °F 41.0 °F 93% 30.13 in 10.0 mi SE 3.5 mph - 0.00 in   Overcast
6:53 AM 43.0 °F 41.3 °F 41.0 °F 93% 30.14 in 10.0 mi ESE 3.5 mph - N/A   Overcast
7:53 AM 44.1 °F - 41.0 °F 89% 30.15 in 10.0 mi Calm Calm - N/A   Overcast
8:53 AM 45.0 °F - 41.0 °F 86% 30.16 in 10.0 mi Calm Calm - N/A   Overcast
9:53 AM 46.0 °F - 42.1 °F 86% 30.15 in 10.0 mi Calm Calm - N/A   Overcast
10:03 AM 46.4 °F - 41.0 °F 81% 30.15 in 10.0 mi Calm Calm - N/A   Overcast
10:53 AM 46.0 °F - 41.0 °F 83% 30.16 in 10.0 mi Calm Calm - N/A   Overcast
12:35 PM 48.9 °F - 41.0 °F 74% 30.12 in 10.0 mi Calm Calm - N/A   Clear
12:37 PM 48.0 °F - 41.0 °F 77% 30.12 in 10.0 mi Calm Calm - N/A   Overcast
12:53 PM 48.9 °F - 42.1 °F 77% 30.12 in 10.0 mi Calm Calm - N/A   Overcast
1:53 PM 48.9 °F - 42.1 °F 77% 30.11 in 10.0 mi South 3.5 mph - N/A   Overcast
2:53 PM 50.0 °F - 43.0 °F 77% 30.11 in 10.0 mi Calm Calm - N/A   Overcast
3:53 PM 48.9 °F - 45.0 °F 86% 30.12 in 9.0 mi Calm Calm - 0.00 in   Overcast
4:23 PM 48.9 °F - 45.0 °F 86% 30.12 in 10.0 mi Calm Calm - N/A   Overcast
4:53 PM 48.9 °F - 46.0 °F 90% 30.12 in 10.0 mi Calm Calm - N/A   Overcast
5:41 PM 50.0 °F - 46.0 °F 86% 30.15 in 9.0 mi Calm Calm - N/A   Overcast
5:53 PM 50.0 °F - 46.0 °F 86% 30.15 in 10.0 mi Variable 4.6 mph - N/A   Overcast
6:02 PM 51.1 °F - 46.0 °F 83% 30.14 in 10.0 mi Variable 3.5 mph - N/A   Overcast
6:16 PM 51.1 °F - 46.0 °F 83% 30.15 in 10.0 mi Calm Calm - N/A   Overcast
6:53 PM 54.0 °F - 44.1 °F 69% 30.16 in 10.0 mi WSW 8.1 mph - N/A   Overcast
7:53 PM 54.0 °F - 44.1 °F 69% 30.17 in 10.0 mi NW 10.4 mph - N/A   Overcast
8:53 PM 53.1 °F - 44.1 °F 71% 30.19 in 10.0 mi WNW 9.2 mph - N/A   Overcast
9:53 PM 51.1 °F - 45.0 °F 80% 30.21 in 10.0 mi West 5.8 mph - N/A   Overcast
10:53 PM 51.1 °F - 45.0 °F 80% 30.21 in 10.0 mi WNW 5.8 mph - N/A   Overcast
11:53 PM 51.1 °F - 45.0 °F 80% 30.22 in 10.0 mi WNW 5.8 mph - N/A   Overcast